• In Russia
  • List of Countries
  • For 7 days
  • Water Temperature
  • Satellite Maps
  • Weather Map
  • Weather Widgets
  • user-avatar
    Login

    Hourly Weather Fier

    Today, 24 January, Wednesday

    Time Temperature Precipitation Wind Pressure Humidity
    00:00 +4°C° 0 mm 4 mps 767 mmHg 66%
    01:00 +3°C° 0 mm 5 mps 767 mmHg 66%
    02:00 +3°C° 0 mm 4 mps 767 mmHg 66%
    03:00 +3°C° 0 mm 4 mps 768 mmHg 66%
    04:00 +3°C° 0 mm 4 mps 768 mmHg 67%
    05:00 +3°C° 0 mm 4 mps 768 mmHg 66%
    06:00 +3°C° 0 mm 4 mps 769 mmHg 66%
    07:00 +3°C° 0 mm 4 mps 769 mmHg 66%
    08:00 +4°C° 0 mm 4 mps 770 mmHg 61%
    09:00 +6°C° 0 mm 4 mps 770 mmHg 55%
    10:00 +9°C° 0 mm 3 mps 770 mmHg 50%
    11:00 +9°C° 0 mm 3 mps 770 mmHg 47%
    12:00 +10°C° 0 mm 3 mps 770 mmHg 43%
    13:00 +12°C° 0 mm 2 mps 770 mmHg 40%
    14:00 +12°C° 0 mm 2 mps 770 mmHg 43%
    15:00 +10°C° 0 mm 2 mps 770 mmHg 47%
    16:00 +10°C° 0 mm 3 mps 770 mmHg 50%
    17:00 +8°C° 0 mm 3 mps 770 mmHg 52%
    18:00 +7°C° 0 mm 3 mps 771 mmHg 54%
    19:00 +5°C° 0 mm 3 mps 771 mmHg 56%
    20:00 +4°C° 0 mm 3 mps 771 mmHg 57%
    21:00 +4°C° 0 mm 3 mps 771 mmHg 58%
    22:00 +5°C° 0 mm 2 mps 771 mmHg 59%
    23:00 +5°C° 0 mm 2 mps 771 mmHg 59%

    Tomorrow, 25 January, Thursday

    Time Temperature Precipitation Wind Pressure Humidity
    00:00 +4°C° 0 mm 2 mps 771 mmHg 58%
    01:00 +4°C° 0 mm 2 mps 771 mmHg 58%
    02:00 +4°C° 0 mm 2 mps 771 mmHg 57%
    03:00 +4°C° 0 mm 2 mps 771 mmHg 56%
    04:00 +4°C° 0 mm 2 mps 771 mmHg 54%
    05:00 +4°C° 0 mm 2 mps 771 mmHg 53%
    06:00 +4°C° 0 mm 2 mps 771 mmHg 51%
    07:00 +4°C° 0 mm 2 mps 770 mmHg 50%
    08:00 +6°C° 0 mm 2 mps 770 mmHg 45%
    09:00 +9°C° 0 mm 1 mps 770 mmHg 41%
    10:00 +11°C° 0 mm 1 mps 770 mmHg 36%
    11:00 +12°C° 0 mm 1 mps 770 mmHg 35%
    12:00 +12°C° 0 mm 1 mps 769 mmHg 34%
    13:00 +13°C° 0 mm 1 mps 769 mmHg 33%
    14:00 +12°C° 0 mm 1 mps 769 mmHg 39%
    15:00 +12°C° 0 mm 1 mps 768 mmHg 45%
    16:00 +11°C° 0 mm 1 mps 768 mmHg 50%
    17:00 +10°C° 0 mm 1 mps 768 mmHg 53%
    18:00 +9°C° 0 mm 1 mps 768 mmHg 55%
    19:00 +8°C° 0 mm 1 mps 768 mmHg 57%
    20:00 +8°C° 0 mm 1 mps 768 mmHg 57%
    21:00 +8°C° 0 mm 1 mps 768 mmHg 57%
    22:00 +7°C° 0 mm 1 mps 768 mmHg 56%
    23:00 +7°C° 0 mm 1 mps 768 mmHg 56%

    Day after tomorrow, 26 January, Friday

    Time Temperature Precipitation Wind Pressure Humidity
    00:00 +7°C° 0 mm 1 mps 767 mmHg 56%
    01:00 +7°C° 0 mm 1 mps 767 mmHg 56%
    02:00 +7°C° 0 mm 1 mps 767 mmHg 55%
    03:00 +6°C° 0 mm 2 mps 766 mmHg 55%
    04:00 +6°C° 0 mm 2 mps 766 mmHg 55%
    05:00 +6°C° 0 mm 2 mps 766 mmHg 54%
    06:00 +6°C° 0 mm 2 mps 766 mmHg 53%
    07:00 +6°C° 0 mm 2 mps 766 mmHg 53%
    08:00 +8°C° 0 mm 2 mps 766 mmHg 49%
    09:00 +9°C° 0 mm 2 mps 766 mmHg 46%
    10:00 +12°C° 0 mm 2 mps 766 mmHg 42%
    11:00 +13°C° 0 mm 2 mps 766 mmHg 42%
    12:00 +14°C° 0 mm 2 mps 766 mmHg 43%
    13:00 +14°C° 0 mm 2 mps 765 mmHg 43%
    14:00 +14°C° 0 mm 2 mps 765 mmHg 49%
    15:00 +13°C° 0 mm 2 mps 765 mmHg 54%
    16:00 +13°C° 0 mm 2 mps 765 mmHg 60%
    17:00 +12°C° 0 mm 2 mps 766 mmHg 64%
    18:00 +9°C° 0 mm 3 mps 766 mmHg 67%
    19:00 +8°C° 0 mm 3 mps 766 mmHg 70%
    20:00 +8°C° 0 mm 3 mps 766 mmHg 70%
    21:00 +8°C° 0 mm 3 mps 767 mmHg 69%
    22:00 +7°C° 0 mm 3 mps 767 mmHg 69%
    23:00 +7°C° 0 mm 3 mps 767 mmHg 69%

    27 January, Saturday

    Time Temperature Precipitation Wind Pressure Humidity
    00:00 +6°C° 0 mm 4 mps 767 mmHg 69%
    01:00 +6°C° 0 mm 4 mps 767 mmHg 68%
    02:00 +6°C° 0 mm 4 mps 767 mmHg 68%
    03:00 +6°C° 0 mm 4 mps 767 mmHg 67%
    04:00 +6°C° 0 mm 4 mps 767 mmHg 67%
    05:00 +6°C° 0 mm 4 mps 767 mmHg 67%
    06:00 +7°C° 0 mm 3 mps 767 mmHg 66%
    07:00 +7°C° 0 mm 3 mps 767 mmHg 65%
    08:00 +9°C° 0 mm 3 mps 768 mmHg 61%
    09:00 +10°C° 0 mm 3 mps 768 mmHg 56%
    10:00 +12°C° 0 mm 3 mps 768 mmHg 51%
    11:00 +13°C° 0 mm 3 mps 768 mmHg 50%
    12:00 +15°C° 0 mm 2 mps 768 mmHg 49%
    13:00 +16°C° 0 mm 2 mps 768 mmHg 48%
    14:00 +15°C° 0 mm 2 mps 768 mmHg 53%
    15:00 +15°C° 0 mm 2 mps 768 mmHg 58%
    16:00 +14°C° 0 mm 2 mps 768 mmHg 63%
    17:00 +13°C° 0 mm 2 mps 769 mmHg 66%
    18:00 +12°C° 0 mm 2 mps 769 mmHg 69%
    19:00 +11°C° 0 mm 1 mps 770 mmHg 73%
    20:00 +10°C° 0 mm 1 mps 770 mmHg 71%
    21:00 +10°C° 0 mm 1 mps 771 mmHg 70%
    22:00 +10°C° 0 mm 1 mps 771 mmHg 69%
    23:00 +9°C° 0 mm 1 mps 771 mmHg 68%

    28 January, Sunday

    Time Temperature Precipitation Wind Pressure Humidity
    00:00 +9°C° 0 mm 1 mps 771 mmHg 68%
    01:00 +9°C° 0 mm 1 mps 772 mmHg 67%
    02:00 +9°C° 0 mm 1 mps 772 mmHg 67%
    03:00 +9°C° 0 mm 1 mps 772 mmHg 67%
    04:00 +9°C° 0 mm 1 mps 772 mmHg 66%
    05:00 +8°C° 0 mm 1 mps 772 mmHg 66%
    06:00 +8°C° 0 mm 1 mps 772 mmHg 66%
    07:00 +7°C° 0 mm 2 mps 773 mmHg 66%
    08:00 +10°C° 0 mm 1 mps 773 mmHg 61%
    09:00 +12°C° 0 mm 1 mps 773 mmHg 56%
    10:00 +14°C° 0 mm 1 mps 773 mmHg 50%
    11:00 +15°C° 0 mm 2 mps 773 mmHg 48%
    12:00 +16°C° 0 mm 2 mps 773 mmHg 46%
    13:00 +17°C° 0 mm 2 mps 773 mmHg 43%
    14:00 +16°C° 0 mm 2 mps 772 mmHg 48%
    15:00 +14°C° 0 mm 3 mps 772 mmHg 53%
    16:00 +14°C° 0 mm 3 mps 772 mmHg 58%
    17:00 +12°C° 0 mm 3 mps 773 mmHg 61%
    18:00 +11°C° 0 mm 3 mps 773 mmHg 64%
    19:00 +10°C° 0 mm 3 mps 773 mmHg 67%
    20:00 +10°C° 0 mm 3 mps 773 mmHg 67%
    21:00 +9°C° 0 mm 3 mps 773 mmHg 66%
    22:00 +9°C° 0 mm 3 mps 774 mmHg 65%
    23:00 +9°C° 0 mm 3 mps 774 mmHg 64%

    29 January, Monday

    Time Temperature Precipitation Wind Pressure Humidity
    00:00 +8°C° 0 mm 2 mps 774 mmHg 64%
    01:00 +8°C° 0 mm 2 mps 774 mmHg 63%
    02:00 +8°C° 0 mm 2 mps 773 mmHg 62%
    03:00 +8°C° 0 mm 2 mps 773 mmHg 60%
    04:00 +8°C° 0 mm 2 mps 773 mmHg 59%
    05:00 +8°C° 0 mm 2 mps 773 mmHg 58%
    06:00 +7°C° 0 mm 2 mps 773 mmHg 56%
    07:00 +7°C° 0 mm 2 mps 773 mmHg 55%
    08:00 +9°C° 0 mm 2 mps 773 mmHg 50%
    09:00 +12°C° 0 mm 2 mps 773 mmHg 45%
    10:00 +14°C° 0 mm 2 mps 773 mmHg 40%
    11:00 +15°C° 0 mm 2 mps 773 mmHg 39%
    12:00 +16°C° 0 mm 2 mps 773 mmHg 37%
    13:00 +17°C° 0 mm 2 mps 772 mmHg 36%
    14:00 +16°C° 0 mm 2 mps 772 mmHg 42%
    15:00 +16°C° 0 mm 3 mps 772 mmHg 47%
    16:00 +14°C° 0 mm 3 mps 772 mmHg 53%
    17:00 +13°C° 0 mm 3 mps 772 mmHg 56%
    18:00 +12°C° 0 mm 2 mps 772 mmHg 59%
    19:00 +10°C° 0 mm 2 mps 772 mmHg 62%
    20:00 +10°C° 0 mm 2 mps 773 mmHg 61%
    21:00 +9°C° 0 mm 2 mps 773 mmHg 60%
    22:00 +9°C° 0 mm 2 mps 773 mmHg 58%
    23:00 +9°C° 0 mm 2 mps 773 mmHg 58%
    Show more